GFSGBSN_2pvu_pres_267.txt.gz
Presure
135 117 173 182 131 149 180 181 177 171 178 182 182 173 183 163 194 230 222 185 213 189 228 203 211 207 217 198 194 187 188 199 195 178 171 163 151 166 170 169 164 161 164 164 156 161 126
156 136 158 144 127 183 173 165 182 188 174 173 180 181 178 202 183 217 215 195 181 225 227 221 215 189 230 186 190 202 190 183 201 198 177 173 179 158 170 169 170 169 159 166 170 171 148
162 121 112 180 128 145 176 194 175 178 179 173 180 185 189 171 230 217 217 207 205 248 257 189 231 210 201 187 198 206 200 201 188 200 200 186 178 178 174 171 168 168 168 170 158 164 169
130 174 144 180 175 127 182 171 181 169 190 178 178 167 182 203 231 221 251 246 248 250 250 279 233 203 197 192 208 210 217 204 203 189 191 190 204 185 177 182 171 170 162 165 170 172 160
112 135 116 156 127 178 165 158 183 183 162 185 177 181 192 185 231 225 222 220 231 251 245 235 280 240 227 217 196 217 222 209 213 205 197 182 191 195 196 185 180 182 175 170 163 174 173
116 169 144 136 186 178 168 167 178 178 198 186 171 214 225 229 226 221 229 219 224 229 241 242 233 268 247 216 167 207 213 195 204 222 209 191 201 198 187 204 191 184 182 181 179 169 179
179 189 164 166 128 174 166 159 216 155 202 191 176 195 213 228 222 217 225 239 220 252 189 241 244 227 277 244 226 117 195 133 207 213 206 215 206 176 206 183 197 198 193 187 183 185 167
169 169 153 142 176 152 168 188 163 170 192 205 176 216 224 233 234 230 234 235 236 223 252 228 224 239 231 260 231 226 231 213 209 207 203 218 215 216 199 192 208 204 194 188 194 194 194
187 184 172 179 179 195 194 169 189 175 190 205 216 225 227 242 249 256 287 302 281 263 285 257 241 238 225 221 225 243 256 243 230 220 214 177 201 210 216 187 186 190 218 202 197 204 198
153 186 174 183 206 202 187 177 186 196 198 213 216 224 216 235 297 292 267 294 289 304 312 314 278 261 260 197 230 242 225 241 257 236 228 225 205 200 211 210 191 226 217 185 211 210 208
135 166 163 184 185 194 180 164 184 199 215 215 226 227 226 256 280 285 271 271 273 273 282 286 298 295 270 244 256 223 229 238 218 245 263 233 222 219 209 180 210 186 194 211 221 231 229
167 168 170 185 185 181 180 165 196 209 213 207 225 233 264 277 276 266 280 280 306 306 313 305 315 323 302 293 270 254 248 214 229 234 225 250 262 225 227 214 208 212 180 189 210 220 229
168 169 171 190 182 167 164 198 205 213 211 218 252 192 231 294 278 265 259 320 313 306 303 315 309 303 297 319 303 287 253 250 236 223 243 224 241 270 238 232 221 222 209 208 187 197 198
195 190 186 191 167 195 191 203 212 219 218 241 233 245 233 287 274 256 303 308 309 314 308 305 311 304 299 285 276 289 313 273 258 252 243 244 221 224 269 254 241 223 214 220 221 211 216
167 181 191 177 165 187 202 208 200 235 226 227 238 237 286 272 260 286 308 315 322 321 326 333 320 330 310 302 294 272 268 276 293 263 262 242 242 238 218 216 259 253 244 227 225 225 220
178 191 182 183 191 199 202 205 216 227 221 232 237 251 273 275 265 313 324 324 324 327 324 415 447 464 430 419 431 387 299 282 277 290 304 260 247 240 236 231 214 237 241 250 252 247 239
192 190 177 194 197 206 205 216 221 221 221 235 236 262 276 261 319 326 326 321 304 400 364 491 439 428 446 422 452 462 469 465 314 280 290 298 258 246 240 235 232 222 214 215 251 248 243
187 178 195 199 205 219 218 220 224 226 233 233 244 275 274 297 330 325 324 319 368 349 400 436 407 394 386 383 445 440 427 447 454 424 264 290 291 291 247 239 232 230 227 218 219 211 254
180 195 197 204 202 207 216 220 221 232 240 241 260 271 286 326 325 326 319 320 384 383 435 415 386 371 363 367 418 413 413 427 433 435 429 374 300 286 283 244 237 232 230 229 233 222 219
184 202 201 198 206 213 216 222 222 237 235 248 271 282 287 322 330 315 309 340 381 396 423 394 372 358 347 406 400 393 394 400 409 416 422 437 376 338 280 280 272 243 237 235 234 232 227
199 197 206 223 204 222 223 223 217 232 242 262 270 286 328 312 320 315 300 343 393 393 404 385 354 346 398 394 386 380 379 381 385 396 404 409 419 388 338 270 277 285 243 238 238 233 230
195 203 190 217 223 224 208 222 223 224 265 264 281 314 321 322 311 307 327 338 394 403 391 366 347 335 388 386 377 368 370 367 366 376 380 398 429 391 385 353 264 272 279 286 238 240 235
198 211 215 220 209 222 221 226 216 242 259 276 279 318 319 331 299 300 338 388 392 406 375 357 339 326 386 377 371 363 362 363 362 364 369 371 388 406 381 358 355 265 267 276 277 266 250
213 202 203 205 216 216 220 218 232 254 277 280 321 318 320 301 302 315 386 400 393 393 367 351 331 321 386 371 361 361 358 359 361 358 360 363 368 379 398 359 338 339 332 266 268 274 269
208 196 201 204 218 214 216 233 258 270 281 301 314 315 319 294 300 358 401 396 395 379 358 345 326 315 382 363 357 352 352 354 357 367 355 354 365 364 375 389 364 341 336 344 258 263 272
210 205 206 214 212 219 219 233 268 272 297 324 318 324 297 297 332 409 402 399 380 366 352 337 320 313 378 359 349 347 347 404 417 412 410 352 349 357 360 367 375 412 339 326 333 336 270
205 204 215 215 221 221 223 263 272 272 326 329 324 295 303 323 417 410 403 391 375 357 341 329 313 348 376 358 345 337 342 350 396 393 391 401 411 345 354 367 366 374 387 358 334 317 324
206 206 216 218 215 222 230 280 273 318 266 334 304 302 325 399 420 412 399 380 363 348 337 320 304 367 373 358 345 339 341 337 395 405 392 387 388 399 378 350 374 359 368 380 398 335 327
205 218 220 214 219 231 270 271 283 264 295 312 302 325 355 436 418 405 383 369 354 344 329 310 296 361 371 357 344 337 340 330 415 417 413 399 396 378 377 396 377 407 365 366 375 419 382

GFSGBSN_2pvu_pres_273.txt.gz
Presure
119 142 168 188 128 181 154 145 173 160 170 180 152 188 178 162 146 189 169 177 173 192 186 191 181 169 185 190 165 156 229 223 170 208 219 203 192 210 191 170 176 154 161 150 142 147 168
160 121 147 152 178 106 135 137 155 175 144 170 179 155 173 172 185 175 172 194 203 179 183 170 206 218 234 169 225 173 155 188 223 240 200 213 198 206 212 180 193 176 165 183 149 145 143
181 136 138 173 116 124 150 129 188 168 156 187 138 177 163 167 184 169 200 178 199 204 214 180 170 240 179 237 248 233 189 242 222 215 233 226 217 197 202 213 187 157 171 166 181 172 149
91 166 111 165 132 111 181 183 180 154 147 139 132 180 167 177 203 178 201 194 189 207 228 218 184 241 251 249 264 245 232 226 245 245 150 216 207 220 194 215 209 190 179 181 158 175 178
169 142 179 127 101 179 157 189 164 147 165 140 189 180 189 173 202 196 196 194 205 219 228 220 213 214 248 245 241 261 264 260 232 235 253 233 215 229 214 195 218 210 190 182 182 155 160
126 179 177 181 163 171 190 170 175 135 125 196 192 196 191 200 194 188 193 203 215 224 215 211 244 255 251 277 247 245 259 271 208 233 240 253 253 223 227 218 201 216 201 188 183 184 177
163 171 146 170 175 187 184 174 171 183 176 201 199 204 199 192 178 196 194 212 218 218 208 263 248 260 256 243 295 285 252 256 281 261 228 249 277 207 217 217 215 200 219 211 194 190 191
155 102 128 171 169 125 162 169 165 203 200 174 196 194 189 193 196 199 211 223 210 238 229 261 241 262 301 333 322 307 311 316 312 269 252 238 251 278 243 227 217 226 208 197 203 201 195
177 118 132 138 163 172 188 127 205 196 193 197 192 191 192 193 201 210 228 203 242 214 250 255 264 269 353 356 362 346 327 306 306 316 276 246 242 238 264 242 225 215 233 198 196 198 209
165 135 179 166 187 192 126 203 198 188 194 189 190 184 188 200 212 223 208 236 232 247 252 265 275 343 375 369 368 355 364 304 301 293 310 285 232 237 250 241 239 223 208 226 211 201 188
167 144 154 158 180 121 127 150 185 187 190 191 185 191 202 214 221 212 217 233 247 249 253 267 357 367 367 370 370 353 356 349 288 295 291 314 249 232 247 258 241 233 217 196 187 219 212
116 124 147 126 192 193 130 185 189 186 182 189 193 197 212 206 222 207 241 241 241 249 256 275 379 345 367 365 352 368 359 343 332 287 287 290 291 242 241 238 256 245 233 223 199 193 211
151 119 136 196 192 127 181 190 183 191 190 191 192 208 205 205 212 236 240 242 238 250 265 351 334 348 369 366 350 343 353 357 349 333 311 280 290 283 227 241 237 249 252 231 225 207 195
179 203 197 121 192 185 192 183 191 186 186 196 204 198 204 206 206 239 242 241 228 263 277 376 318 369 357 345 338 340 342 346 354 352 321 276 321 288 287 231 243 236 249 255 233 228 217
195 196 189 190 182 191 185 182 188 184 193 201 208 192 206 232 239 239 246 228 256 273 392 311 376 356 338 333 387 467 473 477 464 357 352 322 304 303 285 292 238 226 234 245 247 231 230
191 156 194 182 189 184 174 185 184 194 190 223 188 201 212 240 239 242 244 249 262 393 319 298 362 345 347 366 459 456 458 466 462 459 402 355 333 299 285 284 283 242 228 230 216 247 231
197 187 187 188 187 175 185 186 196 184 205 191 205 213 246 236 228 242 250 258 368 339 281 362 337 338 353 441 438 439 430 424 439 446 469 424 353 318 288 289 280 282 233 234 232 251 246
189 191 164 182 186 177 185 191 183 188 212 203 206 215 226 221 236 254 258 263 316 314 339 338 334 349 428 426 429 423 409 404 401 407 417 458 446 332 315 287 286 275 283 264 234 236 242
187 186 182 190 182 185 200 178 183 213 199 202 211 213 232 234 239 252 262 311 311 275 349 332 346 422 420 412 418 404 392 384 378 378 391 414 468 375 342 301 285 287 270 279 278 234 234
175 188 183 185 188 189 192 184 209 196 204 217 219 219 233 236 253 261 298 307 321 325 335 339 422 416 406 403 401 392 380 371 367 365 379 381 432 419 400 317 307 293 280 271 276 269 244
192 185 190 190 185 200 189 215 198 208 215 206 234 227 229 211 255 271 314 316 305 341 327 434 418 404 400 400 386 378 371 360 357 354 357 376 413 420 388 411 316 298 286 285 281 273 270
195 184 192 193 202 193 214 180 211 220 213 202 236 239 237 243 276 306 304 329 313 334 426 430 417 402 396 386 381 363 360 353 344 341 399 367 409 414 410 436 387 307 293 282 280 286 275
191 191 187 193 217 213 199 197 206 209 209 239 229 239 245 253 289 323 320 277 342 350 418 339 412 398 386 377 367 357 351 341 336 351 392 391 394 401 401 398 402 345 299 293 280 274 284
194 193 179 198 193 187 200 204 211 205 229 232 227 244 247 251 294 318 312 348 333 388 352 336 407 394 382 367 356 350 343 330 327 383 382 381 378 383 392 393 426 364 326 297 287 274 271
184 183 195 203 214 206 203 209 207 229 241 230 240 249 253 245 324 293 331 334 343 363 347 336 397 383 371 361 349 340 330 320 386 377 370 369 370 368 376 386 429 395 343 330 298 279 278
199 191 200 202 198 205 213 204 228 234 218 224 233 249 273 316 298 289 341 328 375 353 342 400 391 376 362 352 344 330 318 312 381 370 364 357 359 362 364 372 376 416 366 370 342 307 291
184 213 198 214 199 206 207 218 219 237 233 246 251 283 280 315 281 342 326 381 363 349 363 395 377 370 359 347 334 324 312 321 383 372 361 350 350 397 378 362 364 377 389 350 373 337 310
203 187 208 202 203 208 230 228 239 229 247 257 300 303 327 294 328 331 368 372 353 344 395 387 377 342 350 339 322 315 307 315 383 370 359 351 345 344 401 388 358 353 379 402 333 344 339
207 194 192 196 198 225 216 235 250 228 241 248 321 334 310 293 334 347 375 359 343 340 389 367 333 331 321 307 308 308 311 364 377 367 359 348 348 342 340 439 402 357 360 356 389 343 347

GFSGBSN_2pvu_pres_279.txt.gz
Presure
107 126 121 137 157 161 139 116 136 132 177 174 150 172 146 167 185 153 208 124 188 176 213 212 205 204 206 195 198 196 200 199 203 227 211 242 200 204 176 216 185 233 206 194 180 172 185
118 125 123 160 131 147 171 181 152 187 164 177 117 132 111 176 164 126 123 127 208 191 202 203 198 192 194 192 195 199 208 229 232 224 239 235 224 198 228 183 203 189 231 205 196 184 171
125 114 131 169 122 173 132 149 136 171 158 170 127 151 200 137 189 124 206 130 130 199 196 187 185 191 193 197 195 203 230 234 216 220 223 231 235 247 264 169 190 224 190 223 206 197 183
137 174 178 161 133 173 160 179 155 181 186 180 159 156 113 145 169 211 121 128 162 192 184 192 191 194 192 193 211 220 233 205 217 242 241 248 251 260 254 212 220 177 226 244 208 210 188
119 171 170 171 146 165 190 160 152 171 162 178 112 100 165 163 163 202 202 192 195 190 189 191 192 200 196 196 204 215 224 213 239 237 261 264 264 268 269 268 223 190 224 227 234 205 211
165 127 159 180 119 153 151 172 164 166 183 162 105 191 165 110 195 206 194 172 202 198 191 191 200 201 189 204 230 217 217 246 227 259 251 253 261 298 285 289 294 231 261 234 252 216 208
125 143 131 166 153 117 156 117 170 171 161 117 163 168 206 202 205 196 190 189 197 194 189 196 193 201 208 228 212 234 227 222 242 262 250 371 408 437 410 274 281 224 281 256 191 234 202
172 186 161 140 132 145 126 178 192 158 107 199 185 193 207 202 198 191 193 189 191 195 199 199 218 230 222 207 217 229 218 245 260 281 374 382 366 398 401 385 372 362 275 280 245 228 235
154 107 190 147 171 170 198 151 166 135 189 190 213 215 205 201 193 189 188 199 199 197 189 200 222 212 217 218 230 230 243 264 276 347 371 366 333 303 318 384 368 352 341 263 252 239 243
112 134 120 196 182 148 163 150 140 178 206 187 176 210 199 194 191 191 193 198 196 203 198 203 219 222 223 228 239 237 282 274 338 381 360 415 354 395 380 311 368 348 334 301 267 238 244
102 166 136 167 196 152 144 193 204 182 214 193 212 201 187 191 188 196 196 195 200 200 211 216 217 226 226 247 255 272 269 327 362 340 309 398 406 384 377 371 359 351 331 316 267 254 243
184 124 143 152 128 133 171 136 182 217 198 184 195 168 186 191 193 195 202 190 217 203 216 216 223 229 239 240 274 280 343 360 350 313 395 383 372 384 381 364 357 346 334 314 305 262 248
140 158 157 124 199 207 207 204 207 203 205 198 184 195 190 190 192 196 216 205 203 225 215 217 230 231 233 281 276 344 364 354 376 391 375 365 359 353 376 362 350 339 331 315 297 265 258
148 163 163 201 212 200 201 111 210 196 200 194 199 194 194 195 200 211 201 215 228 220 222 227 228 236 269 281 330 359 353 341 391 488 483 490 497 356 348 375 350 344 326 317 291 299 278
186 142 121 212 128 199 206 185 189 201 199 194 189 192 197 198 217 204 235 223 204 223 232 227 231 253 275 293 363 358 323 386 477 466 460 467 478 435 357 348 360 347 331 316 301 289 266
185 156 172 209 207 205 194 189 206 195 192 186 196 200 212 208 204 221 210 205 217 213 222 226 243 270 277 336 350 387 377 401 425 446 446 448 460 458 411 353 352 342 335 327 306 297 293
133 213 217 196 187 182 204 201 199 186 191 198 196 196 202 213 223 218 209 202 208 222 225 230 269 268 342 351 325 364 386 410 447 433 427 431 439 445 454 431 335 341 331 319 314 297 290
136 214 199 196 190 199 203 200 191 193 199 210 216 201 201 212 223 197 207 217 220 222 230 234 270 376 342 385 371 391 422 385 438 425 416 411 427 428 432 454 372 336 330 318 317 311 286
189 192 195 200 212 185 190 196 193 196 203 179 188 198 213 222 215 221 224 216 222 231 238 260 304 348 380 371 360 395 384 415 423 416 404 405 415 414 413 427 458 328 333 317 315 314 304
201 169 197 213 191 202 204 204 197 206 201 188 198 212 225 225 221 217 216 225 230 256 254 331 355 381 372 352 398 388 369 424 410 404 396 391 389 393 402 405 445 342 326 321 308 309 308
156 172 204 194 197 196 191 200 194 199 196 194 213 223 223 218 217 220 233 231 233 255 348 369 383 369 349 403 389 386 428 415 402 390 381 376 376 376 377 404 423 462 315 324 309 306 302
179 174 183 185 210 194 197 210 191 192 198 208 223 227 219 209 221 218 231 235 255 345 393 375 366 348 391 390 380 360 413 404 391 382 369 363 367 370 362 374 406 404 398 315 318 300 303
172 197 195 214 196 196 202 191 204 192 206 202 220 221 220 214 221 231 228 293 331 406 369 364 345 346 391 381 369 406 403 393 379 370 359 354 356 382 360 359 377 413 450 308 315 310 299
212 180 207 202 198 197 191 185 193 212 214 210 226 221 211 227 229 220 276 343 386 375 357 342 343 388 380 374 395 397 387 379 367 357 353 347 345 355 375 394 362 384 393 384 304 310 306
228 210 200 200 199 195 184 191 227 219 210 189 217 215 229 228 218 343 391 335 373 354 338 334 391 378 373 360 393 384 376 368 358 351 339 335 333 379 388 388 401 403 414 383 326 296 308
206 205 197 191 185 190 200 226 220 200 215 220 219 225 223 239 266 335 317 371 355 331 325 389 387 372 362 388 384 371 367 361 353 342 332 324 324 384 381 368 357 394 391 387 383 312 294
189 195 191 172 207 196 228 220 206 211 218 226 225 236 232 401 342 377 363 353 333 322 393 386 372 361 351 372 372 358 353 346 343 336 325 316 311 313 383 379 383 391 390 370 370 333 318
207 212 208 240 237 229 229 224 214 221 220 222 237 240 328 360 375 360 349 326 323 397 389 378 366 348 366 376 369 357 346 337 335 330 305 307 311 309 387 379 367 374 398 379 388 381 347
201 186 211 237 210 219 216 220 218 218 229 232 253 338 355 336 361 349 322 325 401 393 378 369 354 332 370 375 368 364 353 345 338 329 324 311 309 307 310 379 372 368 375 379 385 379 409

GFSGBSN_2pvu_pres_282.txt.gz
Presure
105 104 109 163 135 153 159 176 167 149 175 156 184 182 165 173 190 156 157 136 146 133 184 160 126 212 191 137 199 199 194 198 192 192 201 202 208 203 203 255 199 205 206 189 197 210 192
110 119 127 125 169 153 160 166 171 186 146 162 135 152 170 192 152 112 158 158 147 212 210 151 207 199 166 167 194 193 186 189 196 202 201 214 216 218 225 248 230 241 257 206 187 198 214
143 157 145 128 155 132 130 147 184 120 192 151 139 173 144 155 185 166 181 176 173 171 203 198 200 193 169 189 198 190 190 189 200 202 213 204 204 242 235 240 229 161 245 249 187 189 201
125 103 172 116 128 167 146 128 167 124 147 132 150 174 143 179 166 163 216 149 197 214 194 183 201 195 189 192 194 192 203 209 203 186 233 234 235 227 225 248 256 258 269 270 219 176 202
140 114 152 135 154 170 128 180 156 160 134 147 188 191 170 129 159 173 166 215 216 193 203 201 191 190 196 193 199 199 202 199 203 213 213 236 223 225 231 245 246 238 256 270 237 209 184
133 133 136 173 136 148 178 139 164 169 100 181 161 109 182 210 199 206 201 195 203 205 193 197 183 190 190 203 196 202 217 207 219 234 214 222 228 237 255 268 262 276 289 302 291 237 241
137 125 133 133 104 113 125 120 168 173 195 199 187 175 187 206 191 204 202 216 198 194 189 188 189 194 196 201 206 214 201 224 205 213 218 226 227 233 247 257 292 287 310 300 327 258 229
175 150 137 145 156 153 133 119 151 170 181 144 187 182 181 211 201 178 189 200 182 193 198 186 191 192 201 210 182 220 230 217 218 224 221 228 253 274 338 338 350 367 404 356 389 395 277
159 99 144 152 182 117 147 124 203 177 149 147 144 194 213 211 207 198 207 196 192 194 189 198 199 215 212 212 238 216 210 217 219 224 239 257 280 357 377 388 372 381 393 380 383 420 331
121 143 195 177 109 141 163 147 208 113 185 203 195 213 212 184 194 208 197 192 193 193 203 205 217 206 224 226 213 209 211 228 229 242 254 304 350 388 379 367 364 354 336 367 341 373 422
136 130 154 111 164 195 140 205 214 165 197 181 214 195 207 199 208 197 193 187 198 197 207 219 210 218 220 232 213 219 229 235 244 269 313 347 387 379 359 352 336 405 327 400 316 320 346
189 154 181 189 172 147 121 189 177 219 176 193 197 179 210 202 200 195 194 199 189 209 193 205 220 236 231 241 219 231 234 247 264 309 331 370 365 318 412 402 400 398 393 396 298 298 313
142 127 121 189 194 182 126 194 161 206 146 204 212 209 195 193 197 193 199 211 181 185 206 218 236 242 231 231 231 236 254 282 312 390 372 381 389 393 399 402 378 383 384 385 371 331 305
177 199 179 179 184 128 123 217 202 192 201 223 197 195 196 200 203 205 210 212 200 209 221 237 237 231 227 229 237 253 285 308 369 379 399 402 393 476 476 485 496 364 366 367 363 353 349
122 130 183 164 148 154 205 185 168 222 221 212 187 201 204 203 217 201 197 194 207 206 208 233 235 229 234 235 242 272 309 378 396 401 397 477 488 462 459 476 477 491 353 352 370 353 349
106 180 186 175 142 193 200 184 127 175 200 209 186 203 211 193 214 189 208 194 216 220 225 228 231 228 240 243 271 329 362 408 394 384 392 408 465 447 443 451 459 442 343 339 352 344 341
178 176 164 132 197 188 163 173 190 177 205 204 194 216 203 205 186 189 194 217 225 222 218 233 231 237 242 264 351 364 396 383 377 355 410 406 453 442 433 435 443 486 453 331 324 346 330
186 152 203 177 190 138 165 196 193 214 211 200 205 200 201 198 190 196 228 228 226 214 235 228 233 239 251 314 330 396 371 364 350 405 390 426 432 427 417 416 420 437 453 329 317 337 329
162 125 184 182 128 182 199 201 214 216 217 207 203 182 184 205 201 223 226 221 222 224 222 234 241 274 365 347 392 369 352 345 399 393 415 416 414 416 397 404 411 421 482 355 316 321 329
183 174 194 148 208 199 181 180 217 171 205 194 191 192 203 214 220 229 227 222 232 228 235 243 313 346 400 385 361 341 335 398 404 374 418 413 405 400 391 384 395 404 429 406 317 306 325
160 180 169 188 192 208 170 207 206 203 208 211 204 223 235 229 229 225 225 237 234 236 242 267 331 390 379 359 336 328 399 392 381 404 401 397 390 385 378 372 384 391 411 433 322 305 318
182 187 202 180 219 188 210 197 205 186 200 210 190 233 227 214 212 230 236 230 235 239 274 394 389 365 354 332 358 392 385 383 362 402 393 385 374 372 365 364 366 384 396 433 394 304 312
163 172 193 209 210 211 204 205 194 201 199 196 236 229 225 225 230 226 237 236 248 352 396 375 366 347 330 330 393 388 377 363 395 385 379 370 363 359 357 357 355 368 383 406 386 310 301
196 181 203 216 203 190 207 190 196 200 212 234 229 217 227 235 224 235 239 277 413 368 323 362 342 329 329 397 385 378 361 391 383 374 370 360 354 350 348 352 351 355 375 398 416 374 301
192 179 215 186 196 207 201 204 200 193 221 228 228 226 238 236 237 247 273 316 388 315 359 335 329 325 392 387 373 362 376 384 374 367 360 354 346 340 338 341 390 360 360 373 420 371 307
185 227 210 208 201 197 204 214 196 220 240 234 231 229 235 239 247 305 329 385 313 357 339 326 331 391 386 373 365 349 367 372 365 357 355 349 338 332 326 328 357 388 356 366 387 441 355
220 205 216 198 199 196 185 207 212 239 240 227 229 240 246 256 324 359 379 319 363 335 325 412 389 387 376 364 352 337 375 366 356 354 346 344 333 326 322 317 384 380 383 354 365 391 380
200 217 206 190 197 199 195 210 217 230 238 238 233 238 270 414 393 383 344 353 332 325 404 392 390 373 369 356 333 361 357 363 358 350 343 337 332 314 316 314 309 378 373 378 372 370 449
207 205 196 206 197 193 208 222 241 235 240 241 251 319 333 391 380 368 348 331 329 408 404 383 376 365 356 333 334 354 348 352 355 357 353 340 338 327 305 309 307 307 380 370 381 376 378